This is the latest recevied weather packets stored in our database for station/object N6SPP. If no packets are shown the sender has not sent any weather packets the latest 10 day(s).
| Time | Temp. | Humidity | Pressure | Rain* | Wind** | Luminosity | Snow |
|---|---|---|---|---|---|---|---|
| 1778190170 | 26.11° C | 52% | 1018.9 hPa | 0 mm | - | 695 W/m² | - |
| 1778189865 | 25.56° C | 54% | 1019.1 hPa | 0 mm | - | 703 W/m² | - |
| 1778189563 | 25.56° C | 53% | 1018.8 hPa | 0 mm | - | 709 W/m² | - |
| 1778189259 | 26.11° C | 53% | 1019.2 hPa | 0 mm | - | 716 W/m² | - |
| 1778188955 | 25.56° C | 53% | 1019 hPa | 0 mm | - | 724 W/m² | - |
| 1778188652 | 25.56° C | 54% | 1019 hPa | 0 mm | - | 731 W/m² | - |
| 1778188348 | 25.56° C | 53% | 1019.2 hPa | 0 mm | - | 738 W/m² | - |
| 1778188046 | 26.11° C | 53% | 1019.1 hPa | 0 mm | - | 743 W/m² | - |
| 1778187743 | 25.56° C | 53% | 1019.3 hPa | 0 mm | - | 749 W/m² | - |
| 1778187439 | 25.56° C | 53% | 1019.4 hPa | 0 mm | - | 752 W/m² | - |
| 1778187136 | 26.11° C | 53% | 1019.4 hPa | 0 mm | - | 757 W/m² | - |
| 1778186832 | 25.56° C | 54% | 1019.4 hPa | 0 mm | - | 762 W/m² | - |
| 1778186530 | 25.56° C | 55% | 1019.4 hPa | 0 mm | - | 766 W/m² | - |
| 1778186227 | 24.44° C | 55% | 1019.5 hPa | 0 mm | - | 770 W/m² | - |
| 1778185925 | 24.44° C | 54% | 1019.5 hPa | 0 mm | - | 772 W/m² | - |
| 1778185620 | 24.44° C | 56% | 1019.6 hPa | 0 mm | - | 774 W/m² | - |
| 1778185316 | 23.89° C | 57% | 1019.5 hPa | 0 mm | - | 780 W/m² | - |
| 1778185011 | 23.89° C | 56% | 1019.7 hPa | 0 mm | - | 781 W/m² | - |
| 1778184709 | 24.44° C | 55% | 1019.7 hPa | 0 mm | - | 783 W/m² | - |
| 1778184405 | 23.89° C | 56% | 1020 hPa | 0 mm | - | 784 W/m² | - |
| 1778184101 | 24.44° C | 56% | 1019.8 hPa | 0 mm | - | 784 W/m² | - |
| 1778183798 | 24.44° C | 55% | 1020 hPa | 0 mm | - | 784 W/m² | - |
| 1778183495 | 23.89° C | 57% | 1019.9 hPa | 0 mm | - | 784 W/m² | - |
| 1778183192 | 23.89° C | 56% | 1020 hPa | 0 mm | - | 784 W/m² | - |
| 1778182887 | 24.44° C | 55% | 1020 hPa | 0 mm | - | 763 W/m² | - |
* Rain latest hour (hover to see other rain measurements)
** Current wind speed in m/s (hover to see current wind gust speed)